Weather in Sary-Tyuz

Russia / Karachay-Cherkess Republic     43°54′09″N   41°53′47″E
temp.,
°C
wind,
m/s
gust,
m/s
humid.,
%
clouds,
%
prec.,
mm/h
press.,
hPa
HPBL,
m
14 may, fri
fri1400:00+13s335814 0.0 101428
03:00+14s43345 0.0 101326
06:00+14s43460 0.0 101426
09:00+23nne11370 0.0 1012338
12:00+26ne46355 0.0 10121127
15:00+25ene46465 0.0 1011857
18:00+22ene226999 0.0 101126
21:00+18s45499 0.0 101350
15 may, sat
sat1500:00+16s44549 0.0 101343
03:00+15s3351100 0.0 101425
06:00+15ssw32590 0.1 101523
09:00+21nw11560 0.1 1014406
12:00+23nne33545 0.0 10141040
15:00+23ne66624 0.0 10131260
18:00+16ssw4584100 2.4 1015139
21:00+14s3382100 3.0 101430
16 may, sun
sun1600:00+14s328226 0.1 101218
03:00+13s3277100 0.1 101217
06:00+14s2273100 0.0 101121
09:00+20nne215947 0.0 1009463
12:00+23ne335786 0.0 10081086
15:00+23ene666114 0.0 10061045
18:00+20nne1179100 0.6 100657
21:00+17e2384100 1.6 100754
17 may, mon
mon1700:00+15s337540 0.1 100628
03:00+14s33640 0.1 100524
06:00+16s33630 0.0 100529
09:00+24n114592 0.0 1005347
12:00+23nne455699 0.0 1005740
15:00+17s3480100 8.6 1010264
18:00+17sw348296 0.7 1008211
21:00+12sse1196100 2.2 101213
18 may, tue
tue1800:00+13ssw34938 2.4 101179
03:00+12s3285100 2.8 101127
06:00+13nw1188100 0.1 101321
09:00+14nw1185100 0.6 1013371
12:00+17n337689 1.1 1013721
15:00+17n3377100 4.8 1014720
18:00+16nne2287100 2.9 1015339
21:00+12sse119348 5.4 101610